Meadville, PA

10:47 AM EST on January 24, 2017 (GMT -0500)
Port Meadville

Weather History for KGKJ - July, 2013

Change the Weather History Date:

Tuesday, July 23, 2013

  Actual Average Record
Temperature  
Mean Temperature 71 °F -  
Max Temperature 79 °F 81 °F 92 °F (1952)
Min Temperature 64 °F 56 °F 45 °F (1985)
Cooling Degree Days 6    
Growing Degree Days 21 (Base 50)    
Moisture  
Dew Point 64 °F    
Average Humidity 88    
Maximum Humidity 100    
Minimum Humidity 64    
Precipitation  
Precipitation 0.69 in - - ()
Sea Level Pressure  
Sea Level Pressure 29.77 in    
Wind  
Wind Speed 4 mph (West)    
Max Wind Speed 21 mph    
Max Gust Speed 31 mph    
Visibility 6 miles    
Events Rain    
Averages and records for this station are not official NWS values.
T = Trace of Precipitation, MM = Missing Value Source: NWS Daily Summary

Daily Weather History Graph

Daily Weather History Graph

Search for Another Location

Airport or City:

Trip Planner

Search our weather history database for the weather conditions in past years. The results will help you decide how hot, cold, wet, or windy it might be!

Date:

Astronomy

Jul. 23, 2013 Rise Set
Actual Time 6:06 AM EDT 8:47 PM EDT
Civil Twilight 5:34 AM EDT 9:19 PM EDT
Nautical Twilight 4:54 AM EDT 9:59 PM EDT
Astronomical Twilight 4:08 AM EDT 10:45 PM EDT
Moon 9:12 PM EDT (7/23) 7:15 AM EDT (7/23)
Length of Visible Light 15h 44m
Length of Day
14h 40m
Full, 99% of the Moon is Illuminated
Jul 23
Full
Jul 29
Last Quarter
Aug 6
New
Aug 14
First Quarter
Aug 20
Full

Hourly Weather History & Observations

Time (EDT) Temp. Dew Point Humidity Pressure Visibility Wind Dir Wind Speed Gust Speed Precip Events Conditions
12:46 AM 66.2 °F 64.4 °F 94% 29.81 in 5.0 mi Calm Calm - N/A   Overcast
12:53 AM 66.9 °F 64.9 °F 93% 29.78 in 6.0 mi Calm Calm - N/A   Overcast
1:09 AM 66.2 °F 64.4 °F 94% 29.81 in 3.0 mi West 3.5 mph - N/A   Overcast
1:49 AM 66.2 °F 66.2 °F 100% 29.80 in 3.0 mi Calm Calm - N/A   Overcast
1:53 AM 66.9 °F 66.0 °F 97% 29.77 in 2.5 mi Calm Calm - N/A   Overcast
2:23 AM 66.2 °F 66.2 °F 100% 29.79 in 1.5 mi West 3.5 mph - N/A   Overcast
2:29 AM 66.2 °F 64.4 °F 94% 29.79 in 3.0 mi West 4.6 mph - N/A   Overcast
2:39 AM 66.2 °F 64.4 °F 94% 29.79 in 3.0 mi WSW 4.6 mph - N/A   Overcast
2:53 AM 66.9 °F 64.9 °F 93% 29.75 in 4.0 mi Calm Calm - N/A   Overcast
3:37 AM 66.2 °F 64.4 °F 94% 29.79 in 4.0 mi West 3.5 mph - N/A   Mostly Cloudy
3:49 AM 66.2 °F 64.4 °F 94% 29.79 in 3.0 mi WNW 3.5 mph - N/A   Overcast
3:53 AM 66.9 °F 64.9 °F 93% 29.76 in 3.0 mi WNW 4.6 mph - N/A   Overcast
4:17 AM 66.2 °F 64.4 °F 94% 29.78 in 5.0 mi Calm Calm - N/A   Overcast
4:42 AM 66.2 °F 64.4 °F 94% 29.78 in 6.0 mi West 3.5 mph - N/A   Overcast
4:50 AM 66.2 °F 64.4 °F 94% 29.78 in 6.0 mi West 3.5 mph - N/A   Overcast
4:53 AM 66.9 °F 64.9 °F 93% 29.75 in 5.0 mi West 4.6 mph - N/A   Overcast
5:05 AM 66.2 °F 64.4 °F 94% 29.78 in 4.0 mi West 4.6 mph - N/A   Overcast
5:53 AM 66.9 °F 64.9 °F 93% 29.75 in 5.0 mi West 4.6 mph - N/A   Overcast
6:36 AM 66.2 °F 64.4 °F 94% 29.78 in 2.5 mi WNW 3.5 mph - N/A   Overcast
6:53 AM 66.9 °F 64.9 °F 93% 29.76 in 2.5 mi West 3.5 mph - N/A   Overcast
7:09 AM 66.2 °F 64.4 °F 94% 29.79 in 2.5 mi Calm Calm - N/A   Overcast
7:35 AM 66.2 °F 64.4 °F 94% 29.80 in 1.2 mi WNW 5.8 mph - N/A   Overcast
7:53 AM 66.9 °F 64.9 °F 93% 29.78 in 3.0 mi West 3.5 mph - N/A   Overcast
8:17 AM 68.0 °F 64.4 °F 88% 29.80 in 5.0 mi West 4.6 mph - N/A   Overcast
8:53 AM 69.1 °F 66.0 °F 90% 29.78 in 5.0 mi WSW 5.8 mph - N/A   Overcast
9:45 AM 71.6 °F 66.2 °F 83% 29.79 in 7.0 mi Variable 3.5 mph - N/A   Mostly Cloudy
9:53 AM 71.1 °F 66.0 °F 84% 29.76 in 9.0 mi Variable 4.6 mph - N/A   Mostly Cloudy
10:53 AM 72.0 °F 66.9 °F 84% 29.77 in 10.0 mi WSW 5.8 mph - N/A   Mostly Cloudy
11:01 AM 73.4 °F 66.2 °F 78% 29.79 in 10.0 mi WSW 8.1 mph - N/A   Scattered Clouds
11:53 AM 75.9 °F 66.0 °F 71% 29.77 in 10.0 mi West 4.6 mph - N/A   Scattered Clouds
12:06 PM 75.2 °F 64.4 °F 69% 29.79 in 10.0 mi WSW 5.8 mph - N/A   Mostly Cloudy
12:13 PM 75.2 °F 64.4 °F 69% 29.79 in 10.0 mi West 9.2 mph - N/A   Mostly Cloudy
12:53 PM 78.1 °F 64.9 °F 64% 29.75 in 10.0 mi Variable 6.9 mph - N/A   Scattered Clouds
1:53 PM 78.1 °F 64.9 °F 64% 29.74 in 10.0 mi Variable 6.9 mph - N/A   Mostly Cloudy
2:53 PM 77.0 °F 66.0 °F 69% 29.71 in 10.0 mi SW 8.1 mph - 0.00 in Rain Light Rain
3:53 PM 75.9 °F 64.9 °F 69% 29.70 in 10.0 mi SW 6.9 mph - 0.00 in   Scattered Clouds
4:39 PM 69.8 °F 60.8 °F 73% 29.77 in 8.0 mi NNW 20.7 mph 27.6 mph N/A   Mostly Cloudy
4:46 PM 64.4 °F 60.8 °F 88% 29.78 in 8.0 mi NNW 12.7 mph 31.1 mph 0.00 in Rain Light Rain
4:51 PM 64.4 °F 60.8 °F 88% 29.78 in 1.5 mi NW 13.8 mph 29.9 mph 0.11 in Rain Heavy Rain
4:53 PM 64.0 °F 60.1 °F 87% 29.75 in 1.0 mi WNW 16.1 mph 29.9 mph 0.19 in Rain Heavy Rain
5:00 PM 64.4 °F 60.8 °F 88% 29.75 in 0.8 mi WSW 8.1 mph 21.9 mph 0.12 in Rain Heavy Rain
5:05 PM 64.4 °F 60.8 °F 88% 29.76 in 2.5 mi WSW 8.1 mph - 0.12 in Rain Light Rain
5:12 PM 64.4 °F 60.8 °F 88% 29.77 in 10.0 mi West 10.4 mph - 0.12 in   Mostly Cloudy
5:53 PM 70.0 °F 64.0 °F 81% 29.72 in 10.0 mi WSW 3.5 mph - 0.12 in   Clear
6:53 PM 70.0 °F 64.9 °F 84% 29.69 in 10.0 mi SSW 6.9 mph - N/A   Clear
7:53 PM 70.0 °F 66.0 °F 87% 29.70 in 10.0 mi Calm Calm - N/A   Clear
8:53 PM 69.1 °F 64.0 °F 84% 29.70 in 10.0 mi SW 4.6 mph - N/A   Scattered Clouds
9:33 PM 68.0 °F 64.4 °F 88% 29.75 in 1.8 mi WSW 8.1 mph - 0.06 in Rain Rain
9:44 PM 66.2 °F 66.2 °F 100% 29.75 in 1.8 mi Variable 5.8 mph - 0.17 in Rain Heavy Rain
9:50 PM 66.2 °F 64.4 °F 94% 29.77 in 3.0 mi WNW 10.4 mph - 0.19 in Rain Rain
9:53 PM 66.9 °F 64.0 °F 90% 29.75 in 3.0 mi Variable 5.8 mph - 0.22 in Rain Rain
9:58 PM 66.2 °F 64.4 °F 94% 29.77 in 1.8 mi North 5.8 mph - 0.09 in Rain Heavy Rain
10:09 PM 66.2 °F 64.4 °F 94% 29.77 in 3.0 mi Calm Calm - 0.15 in Rain Rain
10:13 PM 66.2 °F 64.4 °F 94% 29.78 in 3.0 mi NNW 6.9 mph - 0.16 in Rain Rain
10:26 PM 66.2 °F 64.4 °F 94% 29.79 in 10.0 mi NNW 8.1 mph - 0.16 in   Overcast
10:40 PM 66.2 °F 64.4 °F 94% 29.79 in 10.0 mi NNW 6.9 mph - 0.16 in   Overcast
10:49 PM 66.2 °F 62.6 °F 88% 29.79 in 10.0 mi NNW 11.5 mph 17.3 mph 0.16 in   Overcast
10:53 PM 66.0 °F 63.0 °F 90% 29.77 in 10.0 mi NNW 10.4 mph 17.3 mph 0.16 in   Overcast
11:53 PM 64.0 °F 60.1 °F 87% 29.79 in 10.0 mi North 9.2 mph 18.4 mph N/A   Overcast